Location: Unspecified
(0.0000°N, 0.0000°E)
Time: 04:34:55
(UTC+00:00)

Vanguard 1 - Pass Details

Date: 15 December 2023
Orbit: 653 x 3826 km, 34.3° (Epoch: 22 February)

Event Time Altitude Azimuth Distance (km) Brightness Sun altitude
Rises 22:43:06 0° 309° (NW) 7,431 14.5 -60.9°
Reaches altitude 10° 22:47:45 10° 310° (NW) 6,636 14.2 -61.5°
Enters shadow 22:52:04 20° 311° (NW) 5,919 13.8 -62.1°
Maximum altitude 23:11:29 86° 38° (NE) 3,699 - -64.4°
Exits shadow 23:26:45 23° 125° (SE) 4,881 13.5 -65.7°
Drops below altitude 10° 23:30:37 10° 126° (SE) 5,561 13.9 -66.0°
Sets 23:34:06 0° 126° (SE) 6,243 14.3 -66.1°
